When you browse on this site, cookies collect data to enhance your experience and personalize the content and advertising you see.
Visit our Privacy Policy to learn more. By continuing to use the site, you agree to this use of cookies and data.
  • In Hungary
  • List of Countries
  • For 7 days
  • Water Temperature
  • Satellite Maps
  • Weather Map
  • News
  • Weather Widgets
  • user-avatar
    Login

    Hourly Weather Sosnowka

    Today, 21 May, Tuesday

    Time Temperature Precipitation Wind Pressure Humidity
    00:00 +13°C° 0 mm 2 mps 731 mmHg 95%
    01:00 +13°C° 0 mm 2 mps 731 mmHg 96%
    02:00 +13°C° 0 mm 1 mps 731 mmHg 96%
    03:00 +12°C° 0 mm 1 mps 730 mmHg 95%
    04:00 +12°C° 0 mm 1 mps 730 mmHg 95%
    05:00 +13°C° 0 mm 1 mps 730 mmHg 91%
    06:00 +14°C° 0 mm 1 mps 730 mmHg 86%
    07:00 +16°C° 0 mm 1 mps 730 mmHg 82%
    08:00 +18°C° 0.1 mm 1 mps 730 mmHg 78%
    09:00 +19°C° 0.1 mm 1 mps 730 mmHg 73%
    10:00 +20°C° 0.1 mm 1 mps 730 mmHg 69%
    11:00 +18°C° 1 mm 2 mps 729 mmHg 76%
    12:00 +18°C° 1 mm 2 mps 729 mmHg 82%
    13:00 +17°C° 1 mm 3 mps 729 mmHg 88%
    14:00 +17°C° 1.4 mm 3 mps 729 mmHg 87%
    15:00 +18°C° 1.4 mm 3 mps 729 mmHg 85%
    16:00 +18°C° 1.4 mm 4 mps 728 mmHg 83%
    17:00 +17°C° 1.8 mm 3 mps 728 mmHg 86%
    18:00 +17°C° 1.8 mm 3 mps 728 mmHg 89%
    19:00 +16°C° 1.8 mm 3 mps 728 mmHg 92%
    20:00 +15°C° 0.4 mm 2 mps 728 mmHg 94%
    21:00 +14°C° 0.4 mm 2 mps 728 mmHg 96%
    22:00 +13°C° 0.4 mm 2 mps 728 mmHg 98%
    23:00 +13°C° 0.1 mm 2 mps 728 mmHg 98%

    Tomorrow, 22 May, Wednesday

    Time Temperature Precipitation Wind Pressure Humidity
    00:00 +13°C° 0.1 mm 2 mps 728 mmHg 97%
    01:00 +14°C° 0.1 mm 2 mps 728 mmHg 97%
    02:00 +14°C° 0.2 mm 2 mps 728 mmHg 97%
    03:00 +13°C° 0.2 mm 2 mps 728 mmHg 97%
    04:00 +13°C° 0.2 mm 2 mps 728 mmHg 97%
    05:00 +14°C° 0.3 mm 2 mps 729 mmHg 96%
    06:00 +14°C° 0.3 mm 2 mps 729 mmHg 95%
    07:00 +14°C° 0.3 mm 2 mps 729 mmHg 95%
    08:00 +13°C° 0.3 mm 3 mps 729 mmHg 93%
    09:00 +14°C° 0.3 mm 3 mps 730 mmHg 91%
    10:00 +14°C° 0.3 mm 3 mps 730 mmHg 89%
    11:00 +16°C° 0.4 mm 3 mps 730 mmHg 87%
    12:00 +16°C° 0.4 mm 3 mps 730 mmHg 86%
    13:00 +17°C° 0.4 mm 4 mps 730 mmHg 84%
    14:00 +17°C° 0.4 mm 4 mps 730 mmHg 84%
    15:00 +17°C° 0.4 mm 4 mps 730 mmHg 84%
    16:00 +17°C° 0.4 mm 4 mps 730 mmHg 84%
    17:00 +16°C° 0.2 mm 3 mps 730 mmHg 87%
    18:00 +16°C° 0.2 mm 2 mps 730 mmHg 89%
    19:00 +15°C° 0.2 mm 1 mps 731 mmHg 92%
    20:00 +14°C° 0.2 mm 1 mps 731 mmHg 94%
    21:00 +13°C° 0.2 mm 1 mps 731 mmHg 95%
    22:00 +13°C° 0.2 mm 1 mps 732 mmHg 97%
    23:00 +12°C° 0 mm 2 mps 732 mmHg 97%

    Day after tomorrow, 23 May, Thursday

    Time Temperature Precipitation Wind Pressure Humidity
    00:00 +12°C° 0 mm 2 mps 732 mmHg 97%
    01:00 +12°C° 0 mm 2 mps 732 mmHg 98%
    02:00 +12°C° 0 mm 3 mps 733 mmHg 98%
    03:00 +12°C° 0 mm 3 mps 733 mmHg 98%
    04:00 +12°C° 0 mm 3 mps 733 mmHg 97%
    05:00 +13°C° 0.3 mm 4 mps 734 mmHg 96%
    06:00 +14°C° 0.3 mm 4 mps 734 mmHg 94%
    07:00 +14°C° 0.3 mm 4 mps 735 mmHg 92%
    08:00 +14°C° 0.5 mm 4 mps 735 mmHg 92%
    09:00 +14°C° 0.5 mm 5 mps 735 mmHg 92%
    10:00 +14°C° 0.5 mm 5 mps 736 mmHg 92%
    11:00 +13°C° 0.1 mm 6 mps 736 mmHg 92%
    12:00 +11°C° 0.1 mm 6 mps 736 mmHg 91%
    13:00 +11°C° 0.1 mm 7 mps 736 mmHg 91%
    14:00 +11°C° 0 mm 7 mps 737 mmHg 90%
    15:00 +10°C° 0 mm 6 mps 737 mmHg 89%
    16:00 +10°C° 0 mm 6 mps 737 mmHg 88%
    17:00 +10°C° 0.1 mm 6 mps 737 mmHg 87%
    18:00 +9°C° 0.1 mm 5 mps 737 mmHg 85%
    19:00 +9°C° 0.1 mm 5 mps 737 mmHg 84%
    20:00 +10°C° 0 mm 4 mps 738 mmHg 81%
    21:00 +10°C° 0 mm 4 mps 738 mmHg 79%
    22:00 +10°C° 0 mm 4 mps 738 mmHg 77%
    23:00 +10°C° 0 mm 4 mps 738 mmHg 79%

    24 May, Friday

    Time Temperature Precipitation Wind Pressure Humidity
    00:00 +10°C° 0 mm 3 mps 738 mmHg 80%
    01:00 +10°C° 0 mm 3 mps 738 mmHg 82%
    02:00 +9°C° 0 mm 3 mps 738 mmHg 86%
    03:00 +8°C° 0 mm 2 mps 738 mmHg 90%
    04:00 +8°C° 0 mm 2 mps 737 mmHg 93%
    05:00 +9°C° 0 mm 3 mps 737 mmHg 84%
    06:00 +10°C° 0 mm 3 mps 738 mmHg 74%
    07:00 +12°C° 0 mm 3 mps 738 mmHg 64%
    08:00 +13°C° 0 mm 3 mps 737 mmHg 58%
    09:00 +14°C° 0 mm 3 mps 737 mmHg 52%
    10:00 +16°C° 0 mm 3 mps 737 mmHg 46%
    11:00 +17°C° 0 mm 3 mps 737 mmHg 45%
    12:00 +18°C° 0 mm 3 mps 737 mmHg 44%
    13:00 +19°C° 0 mm 3 mps 736 mmHg 43%
    14:00 +19°C° 0 mm 3 mps 736 mmHg 45%
    15:00 +19°C° 0 mm 3 mps 735 mmHg 48%
    16:00 +18°C° 0 mm 3 mps 735 mmHg 50%
    17:00 +17°C° 0 mm 2 mps 735 mmHg 57%
    18:00 +15°C° 0 mm 2 mps 735 mmHg 65%
    19:00 +14°C° 0 mm 1 mps 735 mmHg 72%
    20:00 +13°C° 0 mm 1 mps 735 mmHg 75%
    21:00 +12°C° 0 mm 1 mps 735 mmHg 77%
    22:00 +11°C° 0 mm 1 mps 735 mmHg 79%
    23:00 +11°C° 0 mm 1 mps 735 mmHg 80%

    25 May, Saturday

    Time Temperature Precipitation Wind Pressure Humidity
    00:00 +11°C° 0 mm 1 mps 735 mmHg 81%
    01:00 +10°C° 0 mm 1 mps 735 mmHg 82%
    02:00 +10°C° 0 mm 1 mps 735 mmHg 84%
    03:00 +10°C° 0 mm 1 mps 735 mmHg 86%
    04:00 +9°C° 0 mm 1 mps 734 mmHg 87%
    05:00 +12°C° 0 mm 1 mps 735 mmHg 81%
    06:00 +14°C° 0 mm 1 mps 735 mmHg 74%
    07:00 +16°C° 0 mm 1 mps 735 mmHg 67%
    08:00 +18°C° 0 mm 1 mps 735 mmHg 61%
    09:00 +20°C° 0 mm 1 mps 735 mmHg 56%
    10:00 +21°C° 0 mm 1 mps 735 mmHg 51%
    11:00 +20°C° 0 mm 2 mps 734 mmHg 49%
    12:00 +21°C° 0 mm 2 mps 734 mmHg 47%
    13:00 +23°C° 0 mm 2 mps 734 mmHg 46%
    14:00 +21°C° 0 mm 2 mps 734 mmHg 48%
    15:00 +21°C° 0 mm 2 mps 734 mmHg 51%
    16:00 +21°C° 0 mm 2 mps 733 mmHg 54%
    17:00 +20°C° 0.1 mm 2 mps 733 mmHg 61%
    18:00 +18°C° 0.1 mm 2 mps 733 mmHg 69%
    19:00 +18°C° 0.1 mm 1 mps 733 mmHg 77%
    20:00 +16°C° 0 mm 1 mps 733 mmHg 81%
    21:00 +15°C° 0 mm 1 mps 734 mmHg 84%
    22:00 +14°C° 0 mm 1 mps 734 mmHg 87%
    23:00 +13°C° 0 mm 1 mps 734 mmHg 90%

    26 May, Sunday

    Time Temperature Precipitation Wind Pressure Humidity
    00:00 +13°C° 0 mm 2 mps 734 mmHg 92%
    01:00 +12°C° 0 mm 2 mps 735 mmHg 95%
    02:00 +12°C° 0 mm 2 mps 735 mmHg 95%
    03:00 +11°C° 0 mm 3 mps 735 mmHg 95%
    04:00 +11°C° 0 mm 3 mps 735 mmHg 95%
    05:00 +12°C° 0 mm 3 mps 736 mmHg 91%
    06:00 +12°C° 0 mm 3 mps 736 mmHg 87%
    07:00 +12°C° 0 mm 3 mps 736 mmHg 83%
    08:00 +13°C° 0 mm 3 mps 736 mmHg 76%
    09:00 +14°C° 0 mm 3 mps 737 mmHg 69%
    10:00 +15°C° 0 mm 4 mps 737 mmHg 62%
    11:00 +15°C° 0 mm 4 mps 737 mmHg 61%
    12:00 +17°C° 0 mm 4 mps 737 mmHg 59%
    13:00 +17°C° 0 mm 4 mps 737 mmHg 57%
    14:00 +17°C° 0 mm 3 mps 737 mmHg 60%
    15:00 +16°C° 0 mm 3 mps 737 mmHg 62%
    16:00 +16°C° 0 mm 2 mps 737 mmHg 64%
    17:00 +15°C° 0 mm 2 mps 736 mmHg 67%
    18:00 +15°C° 0 mm 2 mps 736 mmHg 71%
    19:00 +14°C° 0 mm 1 mps 736 mmHg 74%
    20:00 +13°C° 0 mm 1 mps 737 mmHg 78%
    21:00 +12°C° 0 mm 2 mps 737 mmHg 82%
    22:00 +10°C° 0 mm 2 mps 737 mmHg 86%
    23:00 +10°C° 0 mm 2 mps 737 mmHg 87%
    Show more